カタログに戻る

DELTA 1 DEB

運用中PO
NORAD 21325·DEBRIS·🇺🇸 United States

打ち上げ Jun 12, 1975 から Vandenberg Space Force Base

Loading…

次のパス (今後24時間)

TLE

最新Source: Space-Track

元期: Sep 14, 2026, 08:05 UTC

1 21325U 75052AT  26257.33685044  .00002622  00000-0  14856-2 0  9995
2 21325  99.7478 270.7600 0092953 244.3228 126.4600 14.08910283776076

AllMySatでDELTA 1 DEBをリアルタイム追跡

Download on the App Store